SCP
1 1 0 0 1 2 2 3 2 2 3 2 2 1 1 1 1 0 0 0 0 0 0 0 0 0 0 0 0 0 0 0
0 0 1 1 0 0 0 0 0 1 2 2 1 1 1 1 0 0 0 0 0 0 0 0 0 0 0 0 0 0 0 0
0 0 2 0 0 0 0 0 0 0 0 0 0 1 1 1 0 0 0 0 0 0 0 0 0 0 0 0 0 0 0 0
0 0 1 1 0 0 0 0 1 1 1 0 0 0 0 0 0 0 0 0 0 0 0 0 0 0 0 0 0 0 0 0
0 0 0 1 0 0 0 0 0 0 0 0 0 0 0 0 0 0 0 0 1 0 0 0 0 0 0 0 0 0 0 0
0 0 0 0 0 0 0 0 0 0 0 0 0 0 0 0 0 0 0 0 0 0 0 0 0 0 0 0 0 -0 -0 0
0 0 0 0 -0 0 0 0 0 0 0 0 1 0 0 0 0 0 0 0 0 0 0 0 0 0 0 0 -0 0 0 -0
0 1 0 0 0 0 0 0 0 0 0 0 0 0 0 0 0 0 0 0 0 0 0 0 0 0 0 0 0 0 0 0
0 0 0 0 0 0 0 0 0 0 0 0 0 0 0 0 0 0 0 0 0 0 0 0 0 0 0 0 0 0 0 0
0 1 1 0 0 0 0 0 0 0 0 0 0 0 0 0 0 0 0 0 0 0 0 0 0 0 0 0 -0 0 0 0
0 1 2 1 1 0 0 -0 0 -0 0 0 0 0 0 1 0 0 0 0 0 0 0 0 0 0 0 0 0 0 0 0
0 1 3 2 1 0 0 0 0 0 0 0 1 0 0 0 1 0 0 0 0 0 0 0 0 0 0 0 0 0 0 0
0 1 2 1 1 0 0 0 0 0 0 1 0 0 0 0 0 0 0 0 0 0 0 0 0 0 0 0 0 0 0 0
0 1 1 1 2 2 2 1 1 1 1 0 0 0 0 0 0 0 0 0 0 0 0 0 0 0 0 0 0 0 0 0
0 1 1 1 1 0 0 0 0 0 0 0 0 0 0 0 0 0 0 0 0 0 0 0 0 0 0 0 0 0 0 0
-0 -0 -0 -0 0 0 0 0 0 0 0 0 0 0 0 0 0 0 0 0 0 0 0 0 0 0 0 0 0 0 0 0
-1 -0 -0 -0 -0 0 0 0 0 0 0 0 0 0 0 0 0 0 0 0 0 0 0 0 0 0 0 0 0 0 0 0
-0 -0 -0 -0 0 0 0 0 0 0 0 0 0 0 0 0 0 0 0 0 0 0 0 0 0 0 0 0 0 0 0 0
0 0 0 0 0 0 0 0 0 0 0 0 0 0 0 0 0 0 0 0 0 0 0 0 0 0 0 0 0 0 0 0
0 0 0 0 0 0 0 0 0 0 0 0 0 0 0 0 0 0 0 0 0 0 0 0 0 0 0 0 0 0 0 0
Wind_Speed_500mb
68 58 49 50 52 51 45 52 50 46 48 41 40 41 41 40 37 33 32 32 32 32 34 35 32 31 29 28 26 27 23 20
62 64 61 61 41 37 46 52 47 41 31 31 31 35 38 38 35 35 34 33 31 29 30 29 29 28 29 31 33 31 28 22
49 40 40 47 42 47 47 55 49 33 27 18 25 33 37 38 39 39 35 31 30 29 22 20 18 17 21 27 35 33 34 25
17 28 45 43 31 35 49 40 55 68 42 43 33 24 40 42 41 40 36 29 30 30 19 18 34 37 42 45 42 40 36 33
8 16 26 37 38 39 47 39 39 45 59 80 72 47 40 33 46 42 36 36 37 32 37 42 40 31 28 28 38 47 36 31
22 13 24 32 38 53 48 43 52 62 77 85 75 70 78 65 54 45 46 40 40 46 40 44 52 41 30 25 17 32 46 44
31 28 28 40 34 40 53 43 57 77 67 65 71 77 63 54 57 53 47 49 47 41 44 45 50 38 43 40 71 73 72 28
54 38 35 34 44 54 61 63 62 49 66 73 67 53 50 52 51 50 29 48 50 44 40 66 60 45 61 42 47 45 45 50
66 45 44 46 54 56 56 53 55 63 82 57 55 64 48 42 45 42 27 18 14 19 38 59 63 39 20 16 30 38 27 13
67 47 56 54 54 54 48 31 35 49 60 62 57 50 51 43 48 34 23 20 10 8 17 44 37 24 16 24 24 19 18 17
59 56 63 62 62 57 42 43 43 49 39 33 30 44 58 44 47 47 34 26 18 21 23 30 30 29 22 19 16 20 20 24
57 65 68 69 65 56 52 54 60 49 41 38 37 38 46 47 41 39 31 27 29 29 25 29 30 25 25 29 29 25 24 29
59 70 71 72 63 68 64 63 64 53 43 37 29 25 32 33 28 31 31 33 26 28 22 24 23 27 29 29 26 27 29 34
55 64 76 78 73 64 67 61 64 58 45 40 36 35 38 43 34 32 34 32 29 23 24 27 31 30 26 26 29 34 40 44
49 76 81 82 75 68 65 64 58 51 49 45 47 48 44 49 37 34 35 36 36 35 31 28 26 27 32 37 43 48 51 55
64 86 85 80 77 73 73 65 60 55 50 47 46 45 49 51 48 41 37 36 36 30 27 27 31 37 43 47 51 53 53 55
80 82 82 78 70 63 55 47 41 35 32 34 42 47 48 44 40 36 31 29 28 29 31 35 39 42 44 48 51 53 54 54
79 89 82 66 56 48 37 33 34 36 34 30 29 30 27 26 25 25 26 29 31 32 33 36 39 43 47 51 53 51 51 51
62 83 82 68 57 51 47 40 36 30 23 19 14 11 9 12 15 16 18 22 26 30 36 41 46 48 49 50 50 50 47 44
69 61 59 63 57 53 50 43 38 29 19 11 7 2 3 9 13 18 24 29 33 38 40 42 46 49 53 55 50 43 42 44
Wind_Direction_500mb
185 202 195 191 195 198 200 199 197 199 195 202 205 212 214 218 225 227 233 237 237 235 229 228 230 231 235 240 241 247 252 250
198 194 193 185 171 189 198 193 187 191 192 193 216 225 230 233 235 237 236 244 247 246 240 242 247 253 257 260 259 256 257 258
210 202 195 205 197 201 198 189 188 177 173 178 213 238 244 248 241 238 239 245 248 233 228 232 247 269 281 285 271 267 262 243
156 203 197 186 201 205 180 191 207 214 209 233 204 233 247 247 247 248 243 246 244 229 235 244 245 249 260 267 265 264 270 262
227 158 185 212 210 203 202 214 223 198 197 202 204 215 238 241 235 236 232 230 217 224 242 230 234 244 258 258 258 260 266 273
256 207 176 182 192 201 205 206 208 197 210 212 220 224 223 226 214 215 212 220 222 218 234 234 234 237 264 261 323 311 300 272
252 232 196 173 164 182 199 196 203 208 196 209 208 208 221 225 225 222 227 224 221 230 238 251 243 251 239 271 261 251 257 291
257 237 207 185 172 181 192 193 198 212 214 198 201 206 219 222 217 225 237 235 238 256 297 248 264 266 257 239 262 255 277 277
243 228 198 178 172 178 186 195 204 195 186 201 216 209 211 206 213 223 226 238 261 256 249 239 254 230 242 240 241 253 262 262
232 215 184 180 174 170 162 161 194 189 205 216 212 217 227 242 229 238 223 230 202 253 207 221 232 220 218 207 198 214 223 234
219 202 188 180 171 162 170 171 179 162 172 188 206 219 228 225 218 219 217 226 231 222 210 207 208 224 207 204 215 230 231 226
202 193 183 179 176 174 178 178 173 169 171 183 196 196 192 203 213 206 213 224 228 208 218 211 221 213 209 227 222 229 248 263
198 190 181 177 175 178 177 171 169 173 177 198 204 225 240 231 207 210 221 222 218 222 220 216 212 221 226 228 236 248 263 274
195 189 173 173 176 169 169 174 175 182 197 201 205 217 226 229 216 220 207 200 188 196 210 218 224 231 239 250 262 275 280 282
183 171 169 175 174 172 179 179 179 187 195 198 202 215 217 212 198 176 175 185 192 199 209 223 236 248 263 275 280 283 285 286
171 171 172 170 170 173 176 182 179 185 194 199 203 205 192 191 187 190 196 201 206 211 225 239 252 265 273 278 282 286 291 294
157 162 161 160 162 165 169 165 168 174 164 157 159 164 168 171 175 182 193 206 220 236 252 265 271 275 281 285 288 290 289 289
127 144 142 140 125 114 107 121 134 138 148 156 158 161 169 175 185 201 215 228 241 253 265 277 286 291 294 295 297 298 299 300
98 118 116 110 105 104 106 109 113 115 121 126 142 160 181 213 230 250 266 275 281 285 289 292 294 295 296 297 297 298 296 297
97 101 107 110 112 112 112 116 112 113 118 121 119 106 299 293 293 294 293 292 291 292 295 297 300 300 299 295 295 292 291 290
Wind_Speed_850mb
68 58 49 50 52 51 45 52 50 46 48 41 40 41 41 40 37 33 32 32 32 32 34 35 32 31 29 28 26 27 23 20
62 64 61 61 41 37 46 52 47 41 31 31 31 35 38 38 35 35 34 33 31 29 30 29 29 28 29 31 33 31 28 22
49 40 40 47 42 47 47 55 49 33 27 18 25 33 37 38 39 39 35 31 30 29 22 20 18 17 21 27 35 33 34 25
17 28 45 43 31 35 49 40 55 68 42 43 33 24 40 42 41 40 36 29 30 30 19 18 34 37 42 45 42 40 36 33
8 16 26 37 38 39 47 39 39 45 59 80 72 47 40 33 46 42 36 36 37 32 37 42 40 31 28 28 38 47 36 31
22 13 24 32 38 53 48 43 52 62 77 85 75 70 78 65 54 45 46 40 40 46 40 44 52 41 30 25 17 32 46 44
31 28 28 40 34 40 53 43 57 77 67 65 71 77 63 54 57 53 47 49 47 41 44 45 50 38 43 40 71 73 72 28
54 38 35 34 44 54 61 63 62 49 66 73 67 53 50 52 51 50 29 48 50 44 40 66 60 45 61 42 47 45 45 50
66 45 44 46 54 56 56 53 55 63 82 57 55 64 48 42 45 42 27 18 14 19 38 59 63 39 20 16 30 38 27 13
67 47 56 54 54 54 48 31 35 49 60 62 57 50 51 43 48 34 23 20 10 8 17 44 37 24 16 24 24 19 18 17
59 56 63 62 62 57 42 43 43 49 39 33 30 44 58 44 47 47 34 26 18 21 23 30 30 29 22 19 16 20 20 24
57 65 68 69 65 56 52 54 60 49 41 38 37 38 46 47 41 39 31 27 29 29 25 29 30 25 25 29 29 25 24 29
59 70 71 72 63 68 64 63 64 53 43 37 29 25 32 33 28 31 31 33 26 28 22 24 23 27 29 29 26 27 29 34
55 64 76 78 73 64 67 61 64 58 45 40 36 35 38 43 34 32 34 32 29 23 24 27 31 30 26 26 29 34 40 44
49 76 81 82 75 68 65 64 58 51 49 45 47 48 44 49 37 34 35 36 36 35 31 28 26 27 32 37 43 48 51 55
64 86 85 80 77 73 73 65 60 55 50 47 46 45 49 51 48 41 37 36 36 30 27 27 31 37 43 47 51 53 53 55
80 82 82 78 70 63 55 47 41 35 32 34 42 47 48 44 40 36 31 29 28 29 31 35 39 42 44 48 51 53 54 54
79 89 82 66 56 48 37 33 34 36 34 30 29 30 27 26 25 25 26 29 31 32 33 36 39 43 47 51 53 51 51 51
62 83 82 68 57 51 47 40 36 30 23 19 14 11 9 12 15 16 18 22 26 30 36 41 46 48 49 50 50 50 47 44
69 61 59 63 57 53 50 43 38 29 19 11 7 2 3 9 13 18 24 29 33 38 40 42 46 49 53 55 50 43 42 44
Wind_Direction_850mb
185 202 195 191 195 198 200 199 197 199 195 202 205 212 214 218 225 227 233 237 237 235 229 228 230 231 235 240 241 247 252 250
198 194 193 185 171 189 198 193 187 191 192 193 216 225 230 233 235 237 236 244 247 246 240 242 247 253 257 260 259 256 257 258
210 202 195 205 197 201 198 189 188 177 173 178 213 238 244 248 241 238 239 245 248 233 228 232 247 269 281 285 271 267 262 243
156 203 197 186 201 205 180 191 207 214 209 233 204 233 247 247 247 248 243 246 244 229 235 244 245 249 260 267 265 264 270 262
227 158 185 212 210 203 202 214 223 198 197 202 204 215 238 241 235 236 232 230 217 224 242 230 234 244 258 258 258 260 266 273
256 207 176 182 192 201 205 206 208 197 210 212 220 224 223 226 214 215 212 220 222 218 234 234 234 237 264 261 323 311 300 272
252 232 196 173 164 182 199 196 203 208 196 209 208 208 221 225 225 222 227 224 221 230 238 251 243 251 239 271 261 251 257 291
257 237 207 185 172 181 192 193 198 212 214 198 201 206 219 222 217 225 237 235 238 256 297 248 264 266 257 239 262 255 277 277
243 228 198 178 172 178 186 195 204 195 186 201 216 209 211 206 213 223 226 238 261 256 249 239 254 230 242 240 241 253 262 262
232 215 184 180 174 170 162 161 194 189 205 216 212 217 227 242 229 238 223 230 202 253 207 221 232 220 218 207 198 214 223 234
219 202 188 180 171 162 170 171 179 162 172 188 206 219 228 225 218 219 217 226 231 222 210 207 208 224 207 204 215 230 231 226
202 193 183 179 176 174 178 178 173 169 171 183 196 196 192 203 213 206 213 224 228 208 218 211 221 213 209 227 222 229 248 263
198 190 181 177 175 178 177 171 169 173 177 198 204 225 240 231 207 210 221 222 218 222 220 216 212 221 226 228 236 248 263 274
195 189 173 173 176 169 169 174 175 182 197 201 205 217 226 229 216 220 207 200 188 196 210 218 224 231 239 250 262 275 280 282
183 171 169 175 174 172 179 179 179 187 195 198 202 215 217 212 198 176 175 185 192 199 209 223 236 248 263 275 280 283 285 286
171 171 172 170 170 173 176 182 179 185 194 199 203 205 192 191 187 190 196 201 206 211 225 239 252 265 273 278 282 286 291 294
157 162 161 160 162 165 169 165 168 174 164 157 159 164 168 171 175 182 193 206 220 236 252 265 271 275 281 285 288 290 289 289
127 144 142 140 125 114 107 121 134 138 148 156 158 161 169 175 185 201 215 228 241 253 265 277 286 291 294 295 297 298 299 300
98 118 116 110 105 104 106 109 113 115 121 126 142 160 181 213 230 250 266 275 281 285 289 292 294 295 296 297 297 298 296 297
97 101 107 110 112 112 112 116 112 113 118 121 119 106 299 293 293 294 293 292 291 292 295 297 300 300 299 295 295 292 291 290